{"data":{"norad_id":67652,"epoch":"2026-05-25T02:05:40.585920Z","epoch_age_seconds":74273,"freshness":"FRESH","line1":"1 67652U 26022E   26145.08727530  .00015652  00000+0  48618-3 0  9996","line2":"2 67652  97.2860 178.3885 0000992 235.3369 124.7780 15.33443924 17286","mean_motion":15.33443924,"eccentricity":9.92e-5,"inclination_deg":97.286,"raan_deg":178.3885,"arg_perigee_deg":235.3369,"mean_anomaly_deg":124.778,"bstar":0.00048618,"rev_number":1728,"period_min":93.906270549741,"perigee_km":464.86748250808,"apogee_km":466.22526928986,"semimajor_km":6843.683375899,"source":"CELESTRAK","updated_at":"2026-05-25T13:38:21.657048Z"}}